[Iaude] MPEC J98: 2024 JK2 [a=1.22,e=0.08,i=15.9,H=23.7]
    mpec at cfa.harvard.edu 
    mpec at cfa.harvard.edu
       
    Mon May  6 07:17:50 EDT 2024
    
    
  
M.P.E.C. 2024-J98                                   Issued 2024 May 6, 11:16 UT
     The Minor Planet Electronic Circulars contain information on unusual
         minor planets, routine data on comets and natural satellites,
         and occasional editorial announcements.  They are published
    on behalf of Division F of the International Astronomical Union by the
          Minor Planet Center, Smithsonian Astrophysical Observatory,
                          Cambridge, MA 02138, U.S.A.
			  
             Prepared using the Tamkin Foundation Computer Network
                              MPC at CFA.HARVARD.EDU
            URL https://www.minorplanetcenter.net/    ISSN 1523-6714
                                    2024 JK2                                    
Observations:
     K24J02K* C2024 05 04.27946112 16 13.523+08 03 34.88         21.91GVEJ098V00
     K24J02K  C2024 05 04.28568912 16 14.167+08 03 51.37               VEJ098V00
     K24J02K  C2024 05 04.29192112 16 14.790+08 04 08.29         22.80GVEJ098V00
     K24J02K  C2024 05 04.29815712 16 15.398+08 04 24.74         21.92GVEJ098V00
     K24J02K KC2024 05 04.32182 12 16 17.77 +08 05 28.5          22.0 RVEJ098291
     K24J02K KC2024 05 04.33151 12 16 18.80 +08 05 54.5          22.4 RVEJ098291
     K24J02K KC2024 05 04.34126 12 16 19.75 +08 06 20.5                VEJ098291
     K24J02K KC2024 05 05.18063 12 17 55.21 +08 43 15.3                VEJ098291
     K24J02K KC2024 05 05.21059 12 17 58.12 +08 44 31.6                VEJ098291
     K24J02K KC2024 05 06.34731 12 20 03.64 +09 31 54.0          22.1 RVEJ098291
     K24J02K KC2024 05 06.36229 12 20 05.18 +09 32 30.3          22.4 RVEJ098291
     K24J02K KC2024 05 06.37727 12 20 06.78 +09 33 05.9                VEJ098291
Observer details:
291 LPL/Spacewatch II.  Observers T. H. Bressi, M. T. Read.  1.8-m f/2.7
    reflector + CCD.
V00 Kitt Peak-Bok.  Observer R. A. Mastaler.  Measurers M. J. Brucker, C. E.
    Woodward, T. Beuden, V. F. Carvajal, D. Fay, J. B. Fazekas, D. C. Fuls, A.
    R. Gibbs, H. Groeller, J. K. Hogan, R. A. Kowalski, S. M. Larson, C.
    Lejoly, G. J. Leonard, R. A. Mastaler, R. S. McMillan, D. Rankin, R. L.
    Seaman, F. C. Shelly, K. W. Wierzchos.  2.25-m reflector + 4x4K mosaic
    CCD.
Orbital elements:
2024 JK2                                                 Earth MOID = 0.1741 AU
Epoch 2024 Mar. 31.0 TT = JDT 2460400.5                 MPC                     
M  48.46325              (2000.0)            P               Q                  
n   0.73503526     Peri.  283.63699     -0.66576966     -0.73388297             
a   1.2159917      Node   209.52250     +0.74540705     -0.64606067             
e   0.0835359      Incl.   15.87410     +0.03345286     -0.20981278             
P   1.34           H   23.73          G   0.15           U   9                  
Residuals in seconds of arc
240504 V00  0.1-  0.2+    240504 291  0.4-  0.2+    240505 291  0.4+  0.0
240504 V00  0.2+  0.1-    240504 291  0.3+  0.3+    240506 291  0.0   0.1-
240504 V00  0.2+  0.1+    240504 291  0.5-  0.2+    240506 291  0.5-  0.2+
240504 V00  0.0   0.2-    240505 291  1.1+  1.0+    240506 291  0.3-  0.1-
Ephemeris:
2024 JK2                 a,e,i = 1.22, 0.08, 16                  q = 1.1144
Date    TT    R. A. (2000) Decl.     Delta      r    Elong.  Phase     V
2024 04 06    11 28 08.1 -27 02 32   0.1805  1.1605   149.9    25.6    21.5
...
2024 04 21    11 52 14.3 -05 23 00   0.1977  1.1785   148.8    26.2    21.8
...
2024 04 29    12 06 32.1 +03 33 56   0.2228  1.1886   141.1    32.2    22.2
...
2024 05 05    12 17 34.6 +08 35 38   0.2471  1.1964   135.1    36.5    22.6
2024 05 06    12 19 26.3 +09 17 56   0.2515  1.1977   134.1    37.2    22.6
2024 05 07    12 21 18.3 +09 58 05   0.2561  1.1990   133.2    37.8    22.7
...
2024 05 13    12 32 37.0 +13 17 16   0.2848  1.2068   128.0    41.3    23.0
...
2024 05 21    12 47 55.6 +16 09 12   0.3265  1.2173   122.1    44.8    23.4
...
2024 06 05    13 16 56.7 +18 11 40   0.4108  1.2365   113.4    48.9    24.1
A. U. Tomatic                (C) Copyright 2024 MPC           M.P.E.C. 2024-J98
    
    
More information about the Iaude
mailing list